Flag for Italy

Past Weather in Firenze, Italy — Yesterday and Last 2 Weeks

Now
64 °F

Thundershowers. Partly cloudy.


Feels Like: 64 °F
Forecast: 69 / 51 °F
Wind: 5 mph from Northeast

Location: Florence / Peretola
Current Time: Sep 25, 2020 at 2:45:53 am
Latest Report: Sep 25, 2020 at 1:50 am
Visibility: 4 mi
Pressure29.68 "Hg
Humidity: 100%
Dew Point: 64 °F
Location of FirenzeLocation

Past Weather in Firenze — Graph

°F

Firenze Temperature Yesterday

Maximum temperature yesterday: 77 °F (at 2:20 pm)
Minimum temperature yesterday: 63 °F (at 2:50 am)
Average temperature yesterday: 68 °F

High & Low Weather Summary for the Past Weeks

 TemperatureHumidityPressure
High93 °F (Sep 13, 1:50 pm)100% (Sep 21, 1:20 am)30.24 "Hg (Sep 21, 1:20 am)
Low59 °F (Sep 21, 6:20 am)26% (Sep 13, 1:50 pm)29.68 "Hg (Sep 25, 12:20 am)
Average76 °F61%30.01 "Hg
* Reported Sep 10 1:20 am — Sep 25 1:20 am, Firenze. Weather by CustomWeather, © 2020

Note: Actual official high and low records may vary slightly from our data, if they occured in-between our weather recording intervals... More about our weather records

Firenze Weather History for the Previous 24 Hours

Scroll right to see more
 ConditionsComfort  
Time TempWeatherWind HumidityBarometerVisibility
1:20 am
Fri, Sep 25
66 °FThunderstorms. Partly cloudy.5 mph94%29.68 "HgN/A
12:50 am66 °FThunderstorms. Passing clouds.7 mph94%29.68 "HgN/A
12:20 am68 °FThundershowers. Passing clouds.5 mph94%29.68 "HgN/A
11:50 pm
Thu, Sep 24
68 °FThunderstorms. Passing clouds.5 mph94%29.74 "Hg5 mi
11:20 pm68 °FThunderstorms. Passing clouds.6 mph94%29.74 "HgN/A
10:50 pm68 °FPartly cloudy.5 mph94%29.74 "HgN/A
10:20 pm68 °FPartly cloudy.5 mph94%29.77 "HgN/A
9:50 pm68 °FLight rain. Partly cloudy.1 mph94%29.77 "HgN/A
9:20 pm68 °FPassing clouds.1 mph94%29.80 "HgN/A
8:50 pm68 °FPassing clouds.1 mph88%29.80 "HgN/A
7:50 pm68 °FPassing clouds.3 mph94%29.80 "HgN/A
7:20 pm70 °FPassing clouds.6 mph83%29.80 "HgN/A
6:50 pm70 °FScattered clouds.6 mph83%29.83 "HgN/A
6:20 pm72 °FScattered clouds.6 mph78%29.83 "HgN/A
5:50 pm72 °FScattered clouds.8 mph78%29.83 "HgN/A
5:20 pm73 °FScattered clouds.7 mph69%29.86 "HgN/A
4:50 pm72 °FScattered clouds.8 mph78%29.86 "HgN/A
4:20 pm72 °FLight rain. Scattered clouds.7 mph88%29.89 "HgN/A
3:50 pm73 °FThundershowers. Broken clouds.6 mph74%29.86 "HgN/A
3:20 pm75 °FScattered clouds.7 mph69%29.86 "HgN/A
2:50 pm75 °FPassing clouds.7 mph74%29.89 "HgN/A
2:20 pm77 °FPassing clouds.5 mph69%29.89 "HgN/A
1:50 pm75 °FScattered clouds.3 mph69%29.89 "HgN/A
1:20 pm73 °FScattered clouds.5 mph78%29.89 "HgN/A
12:50 pm73 °FScattered clouds.3 mph83%29.92 "HgN/A
12:20 pm70 °FScattered clouds.3 mph88%29.92 "HgN/A
11:50 am70 °FBroken clouds.3 mph88%29.92 "Hg5 mi
11:20 am66 °FPartly sunny.2 mph100%29.92 "Hg5 mi
10:50 am66 °FPartly sunny.6 mph94%29.92 "Hg4 mi
10:20 am66 °FBroken clouds.2 mph94%29.92 "Hg5 mi
9:50 am66 °FPartly sunny.2 mph94%29.92 "Hg5 mi
9:20 am66 °FPartly sunny.2 mph94%29.89 "Hg5 mi
8:50 am64 °FPartly sunny.1 mph100%29.89 "Hg4 mi
8:20 am64 °FPartly sunny.1 mph100%29.89 "Hg5 mi
7:50 am63 °FPartly sunny.1 mph100%29.89 "Hg5 mi
7:20 am63 °FPartly sunny.1 mph100%29.89 "Hg5 mi
6:50 am63 °FPassing clouds.2 mph100%29.89 "HgN/A
6:20 am63 °FPassing clouds.1 mph100%29.89 "HgN/A
5:50 am63 °FRain. Passing clouds.1 mph100%29.89 "HgN/A
5:20 am63 °FPassing clouds.1 mph100%29.89 "HgN/A
4:50 am63 °FPassing clouds.3 mph100%29.89 "HgN/A
4:20 am64 °FRain. Passing clouds.2 mph94%29.89 "HgN/A
3:20 am63 °FPassing clouds.1 mph100%29.89 "HgN/A
2:50 am63 °FPassing clouds.2 mph100%29.89 "HgN/A
2:20 am64 °FPassing clouds.2 mph94%29.89 "HgN/A
Weather by CustomWeather, © 2020

See weather overview